Weather History for KPOU - September, 2012

Change the Weather History Date:

Monday, September 24, 2012

  Actual Average Record
Temperature  
Mean Temperature 55 °F 60 °F  
Max Temperature 66 °F 72 °F 91 °F (1959)
Min Temperature 43 °F 48 °F 26 °F (1963)
Degree Days  
Heating Degree Days 10 6  
Month to date heating degree days 68 79  
Since 1 July heating degree days 70 96  
Cooling Degree Days 0 0  
Month to date cooling degree days 78 60  
Year to date cooling degree days 889 664  
Growing Degree Days 4 (Base 50)    
Moisture  
Dew Point 42 °F    
Average Humidity 64    
Maximum Humidity 93    
Minimum Humidity 34    
Precipitation  
Precipitation 0.00 in 0.14 in 2.62 in (1975)
Month to date precipitation 4.54 3.36  
Year to date precipitation 26.72 34.14  
Sea Level Pressure  
Sea Level Pressure 30.11 in    
Wind  
Wind Speed 3 mph (WSW)    
Max Wind Speed 16 mph    
Max Gust Speed 20 mph    
Visibility 10 miles    
Events      
T = Trace of Precipitation, MM = Missing Value Source: NWS Daily Summary

Daily Weather History Graph

Daily Weather History Graph

Search for Another Location

Airport or City:

Trip Planner

Search our weather history database for the weather conditions in past years. The results will help you decide how hot, cold, wet, or windy it might be!

Date:

Astronomy

Sep. 24, 2012 Rise Set
Actual Time 6:45 AM EDT 6:48 PM EDT
Civil Twilight 6:17 AM EDT 7:16 PM EDT
Nautical Twilight 5:45 AM EDT 7:48 PM EDT
Astronomical Twilight 5:12 AM EDT 8:21 PM EDT
Moon 3:36 PM EDT (9/24) 12:55 AM EDT (9/24)
Length of Visible Light 12h 58m
Length of Day
12h 02m
Waxing Gibbous, 70% of the Moon is Illuminated
Sep 24
Waxing Gibbous
Sep 29
Full
Oct 8
Last Quarter
Oct 15
New
Oct 21
First Quarter

Hourly Weather History & Observations

Time (EDT) Temp. Dew Point Humidity Pressure Visibility Wind Dir Wind Speed Gust Speed Precip Events Conditions
12:53 AM 45.0 °F 42.1 °F 90% 30.11 in 10.0 mi Calm Calm - N/A   Clear
1:53 AM 45.0 °F 42.1 °F 90% 30.11 in 10.0 mi Calm Calm - N/A   Scattered Clouds
2:53 AM 44.1 °F 41.0 °F 89% 30.09 in 10.0 mi Calm Calm - N/A   Mostly Cloudy
3:53 AM 45.0 °F 42.1 °F 90% 30.11 in 10.0 mi Calm Calm - N/A   Clear
4:53 AM 46.0 °F 43.0 °F 89% 30.12 in 10.0 mi Calm Calm - N/A   Overcast
5:53 AM 46.0 °F 43.0 °F 89% 30.13 in 10.0 mi Calm Calm - N/A   Overcast
6:53 AM 46.0 °F 43.0 °F 89% 30.14 in 10.0 mi Calm Calm - N/A   Overcast
7:53 AM 48.0 °F 45.0 °F 89% 30.14 in 10.0 mi Calm Calm - N/A   Overcast
8:53 AM 50.0 °F 46.0 °F 86% 30.16 in 10.0 mi Calm Calm - N/A   Mostly Cloudy
9:53 AM 53.1 °F 48.0 °F 83% 30.16 in 10.0 mi Calm Calm - N/A   Scattered Clouds
10:53 AM 59.0 °F 46.0 °F 62% 30.14 in 10.0 mi Calm Calm - N/A   Scattered Clouds
11:53 AM 62.1 °F 41.0 °F 46% 30.13 in 10.0 mi WSW 15.0 mph - N/A   Scattered Clouds
12:53 PM 64.0 °F 39.0 °F 40% 30.12 in 10.0 mi West 9.2 mph 18.4 mph N/A   Clear
1:53 PM 63.0 °F 37.0 °F 38% 30.10 in 10.0 mi West 6.9 mph 16.1 mph N/A   Partly Cloudy
2:53 PM 64.0 °F 36.0 °F 35% 30.08 in 10.0 mi SW 10.4 mph - N/A   Partly Cloudy
3:53 PM 64.9 °F 37.0 °F 36% 30.07 in 10.0 mi WSW 12.7 mph 18.4 mph N/A   Scattered Clouds
4:53 PM 64.0 °F 37.0 °F 37% 30.07 in 10.0 mi WSW 10.4 mph - N/A   Partly Cloudy
5:53 PM 63.0 °F 37.0 °F 38% 30.07 in 10.0 mi WSW 5.8 mph - N/A   Clear
6:53 PM 54.0 °F 44.1 °F 69% 30.07 in 10.0 mi Calm Calm - N/A   Clear
7:53 PM 51.1 °F 44.1 °F 77% 30.08 in 10.0 mi Calm Calm - N/A   Clear
8:53 PM 48.0 °F 44.1 °F 86% 30.09 in 10.0 mi Calm Calm - N/A   Clear
9:53 PM 46.9 °F 44.1 °F 90% 30.10 in 10.0 mi Calm Calm - N/A   Clear
10:53 PM 45.0 °F 42.1 °F 90% 30.11 in 10.0 mi Calm Calm - N/A   Clear
11:53 PM 45.0 °F 42.1 °F 90% 30.11 in 10.0 mi Calm Calm - N/A   Clear